This is the latest recevied weather packets stored in our database for station/object LU3HGB-WX. If no packets are shown the sender has not sent any weather packets the latest 10 day(s).
| Time | Temp. | Humidity | Pressure | Rain* | Wind** | Luminosity | Snow |
|---|---|---|---|---|---|---|---|
| 1778199159 | 2.22° C | 72% | 1013 hPa | 0 mm | - | 0 W/m² | - |
| 1778198859 | 2.22° C | 71% | 1013 hPa | 0 mm | - | 0 W/m² | - |
| 1778198560 | 2.78° C | 69% | 1013 hPa | 0 mm | - | 0 W/m² | - |
| 1778198259 | 2.78° C | 65% | 1013 hPa | 0 mm | - | 0 W/m² | - |
| 1778197960 | 2.78° C | 65% | 1013 hPa | 0 mm | - | 0 W/m² | - |
| 1778197660 | 2.78° C | 65% | 1013 hPa | 0 mm | - | 0 W/m² | - |
| 1778197360 | 3.33° C | 64% | 1013 hPa | 0 mm | - | 0 W/m² | - |
| 1778197060 | 3.33° C | 61% | 1013 hPa | 0 mm | - | 0 W/m² | - |
| 1778196760 | 3.33° C | 63% | 1013 hPa | 0 mm | - | 0 W/m² | - |
| 1778196459 | 3.33° C | 60% | 1013 hPa | 0 mm | - | 0 W/m² | - |
| 1778196159 | 3.33° C | 64% | 1013 hPa | 0 mm | - | 0 W/m² | - |
| 1778195860 | 2.78° C | 66% | 1013 hPa | 0 mm | - | 0 W/m² | - |
| 1778195559 | 3.33° C | 66% | 1013 hPa | 0 mm | - | 0 W/m² | - |
| 1778195259 | 3.33° C | 65% | 1013 hPa | 0 mm | - | 0 W/m² | - |
| 1778194960 | 3.33° C | 67% | 1013 hPa | 0 mm | - | 0 W/m² | - |
| 1778194660 | 3.89° C | 67% | 1013 hPa | 0 mm | - | 0 W/m² | - |
| 1778194359 | 3.89° C | 66% | 1013 hPa | 0 mm | - | 0 W/m² | - |
| 1778194059 | 4.44° C | 65% | 1013 hPa | 0 mm | - | 0 W/m² | - |
| 1778193759 | 4.44° C | 64% | 1013 hPa | 0 mm | - | 0 W/m² | - |
| 1778193463 | 4.44° C | 64% | 1013 hPa | 0 mm | - | 0 W/m² | - |
| 1778193161 | 5° C | 61% | 1013 hPa | 0 mm | - | 0 W/m² | - |
| 1778192860 | 5° C | 61% | 1013 hPa | 0 mm | - | 0 W/m² | - |
| 1778192559 | 5.56° C | 59% | 1013 hPa | 0 mm | - | 0 W/m² | - |
| 1778192260 | 6.11° C | 58% | 1013 hPa | 0 mm | - | 0 W/m² | - |
| 1778191959 | 6.67° C | 56% | 1013 hPa | 0 mm | - | 0 W/m² | - |
* Rain latest hour (hover to see other rain measurements)
** Current wind speed in m/s (hover to see current wind gust speed)